This demonstration page uses our WeatherBlox Daily Observations layout. Learn more.

Left ArrowRight Arrow

44.8408, -93.29828

Hourly Observations for November 16, 2020

Temp ( °F °C ) Dew Point ( °F °C ) Humidity (%) Winds ( mph kmh ) Pressure ( in mb ) Visibility ( mi km ) Precip ( " mm )
12:53 am 00:53 Partly Cloudy 24 -4.4 19 -7.2 81 81 Calm 30.03 1017 10 16 0.00 0.00
1:53 am 01:53 Mostly Cloudy 25 -3.9 20 -6.7 81 81 SSW 3 6 30.04 1017 10 16 0.00 0.00
2:53 am 02:53 Mostly Cloudy 25 -3.9 20 -6.7 81 81 S 5 7 30.03 1017 10 16 0.00 0.00
3:53 am 03:53 Partly Cloudy 25 -3.9 19 -7.2 78 78 S 3 6 30.01 1016 10 16 0.00 0.00
4:53 am 04:53 Cloudy 26 -3.3 20 -6.7 78 78 S 5 7 30.00 1016 10 16 0.00 0.00
5:53 am 05:53 Mostly Cloudy 26 -3.3 20 -6.7 78 78 VRB 3 6 30.00 1016 10 16 0.00 0.00
6:53 am 06:53 Cloudy 26 -3.3 22 -5.6 84 84 ESE 5 7 29.99 1016 10 16 0.00 0.00
7:53 am 07:53 Cloudy 28 -2.2 22 -5.6 78 78 S 3 6 30.01 1016 10 16 0.00 0.00
8:08 am 08:08 Cloudy with Light Snow 28 -2.2 22 -5.6 78 78 SSE 6 9 30.02 1017 1 2 0.00 0.00
8:14 am 08:14 Cloudy with Light Snow 28 -2.2 23 -5 81 81 SSE 6 9 30.02 1017 7 11 0.00 0.00
8:41 am 08:41 Mostly Cloudy with Light Snow 29 -1.7 23 -5 78 78 S 9 15 30.02 1017 9 14 0.00 0.00
8:53 am 08:53 Cloudy 29 -1.7 23 -5 78 78 S 7 11 30.00 1016 10 16 0.00 0.00
9:20 am 09:20 Mostly Cloudy 30 -1.1 23 -5 75 75 SE 9 15 29.97 1015 10 16 0.00 0.00
9:53 am 09:53 Mostly Cloudy 32 0 22 -5.6 66 66 S 12 19 29.97 1015 10 16 0.00 0.00
10:53 am 10:53 Mostly Cloudy 35 1.7 23 -5 61 61 S 7 11 29.96 1015 10 16 0.00 0.00
11:53 am 11:53 Partly Cloudy 39 3.9 24 -4.4 55 55 W 8 13 29.94 1014 10 16 0.00 0.00
12:53 pm 12:53 Mostly Cloudy 40 4.4 26 -3.3 58 58 WNW 9 15 29.96 1014 10 16 0.00 0.00
1:53 pm 13:53 Cloudy 38 3.3 25 -3.9 60 60 NW 18 30 30.00 1016 10 16 0.00 0.00
2:53 pm 14:53 Mostly Cloudy 37 2.8 25 -3.9 62 62 NNW 16 26 30.06 1018 10 16 0.00 0.00
3:53 pm 15:53 Mostly Sunny 35 1.7 26 -3.3 70 70 NNW 12 19 30.12 1020 10 16 0.00 0.00
4:53 pm 16:53 Mostly Cloudy 34 1.1 26 -3.3 73 73 NNW 10 17 30.18 1022 10 16 0.00 0.00
5:51 pm 17:51 Mostly Clear 34 1 27 -3 75 75 NW 16 26 30.23 1024 10 16 0.00 0.00
5:53 pm 17:53 Mostly Clear 33 0.6 26 -3.3 75 75 NNW 16 26 30.22 1024 10 16 0.00 0.00
6:53 pm 18:53 Mostly Clear 32 0 24 -4.4 73 73 NW 12 19 30.27 1025 10 16 0.00 0.00
7:53 pm 19:53 Clear 30 -1.1 23 -5 75 75 NW 13 20 30.30 1026 10 16 0.00 0.00
8:53 pm 20:53 Clear 30 -1.1 20 -6.7 66 66 NW 12 19 30.32 1027 10 16 0.00 0.00
9:53 pm 21:53 Clear 28 -2.2 19 -7.2 69 69 NNW 9 15 30.35 1028 10 16 0.00 0.00
10:53 pm 22:53 Clear 27 -2.8 16 -8.9 63 63 NNW 12 19 30.38 1029 10 16 0.00 0.00
11:53 pm 23:53 Clear 24 -4.4 16 -8.9 71 71 WNW 7 11 30.41 1030 10 16 0.00 0.00

Powered by AerisWeather